Date String (YYYY-MM-DD hh:mm:ss) UTC,Instrument flags,Ambient pressure (hPa),Sample flow (lpm),Bypass flow (lpm),Sample temperature (°C),Ambient temperature (°C),ASC tube jacket temperature (°C),LED temperature (°C),Box temperature (°C),Sample RH (%),Span deviation,Mass concentration (μg/m³),Mass concentration (μg/m³),Mass concentration (μg/m³)
DateTimeUTC,F1_M11,P_M11,Q1_M11,Q2_M11,T1_M11,T2_M11,T3_M11,T4_M11,T5_M11,U1_M11,ZSPAN_M11,X0_M11,X2_M11,X1_M11
2021-09-05 21:00:00,,0830.3,4.99,0.00,29.0,26.9,00.0,38.1,30.7,09.9,0002.9,0017.55,0010.55,0009.87
2021-09-05 21:01:00,,0830.2,5.00,0.00,29.0,27.4,00.0,38.1,30.8,09.8,0003.1,0017.36,0010.52,0009.87
2021-09-05 21:02:00,,0830.3,5.01,0.00,29.1,27.7,00.0,38.1,30.9,09.7,0003.3,0016.82,0010.48,0009.87
2021-09-05 21:03:00,,0830.2,5.00,0.00,29.2,28.0,00.0,38.1,31.0,09.9,0003.5,0016.21,0010.46,0009.88
2021-09-05 21:04:00,,0830.2,5.00,0.00,29.2,28.3,00.0,38.1,31.1,09.9,0003.7,0016.14,0010.53,0009.90
2021-09-05 21:05:00,,0830.2,5.01,0.00,29.3,27.8,00.0,38.1,31.0,09.3,0003.6,0016.77,0010.53,0009.90
2021-09-05 21:06:00,,0830.2,5.00,0.00,29.2,26.0,00.0,38.1,30.5,09.5,0003.3,0016.93,0010.52,0009.88
2021-09-05 21:07:00,,0830.2,4.99,0.00,29.0,25.6,00.0,38.1,30.4,09.7,0003.3,0016.63,0010.46,0009.86
2021-09-05 21:08:00,,0830.1,5.01,0.00,29.0,26.1,00.0,38.1,30.5,09.6,0003.2,0016.23,0010.40,0009.85
2021-09-05 21:09:00,,0830.1,4.98,0.00,29.0,26.5,00.0,38.1,30.6,09.8,0003.3,0016.17,0010.43,0009.85
2021-09-05 21:10:00,,0830.2,5.01,0.00,29.0,27.0,00.0,38.1,30.7,09.8,0003.4,0016.07,0010.43,0009.86
2021-09-05 21:11:00,,0830.3,4.99,0.00,29.0,27.4,00.0,38.1,30.8,09.7,0003.1,0015.56,0010.46,0009.88
2021-09-05 21:12:00,,0830.2,5.00,0.00,29.1,27.8,00.0,38.1,30.9,09.7,0003.0,0015.71,0010.55,0009.93
2021-09-05 21:13:00,,0830.2,5.00,0.00,29.2,28.1,00.0,38.1,31.0,09.7,0002.7,0016.18,0010.62,0009.96
2021-09-05 21:14:00,,0830.2,5.01,0.00,29.2,28.3,00.0,38.1,31.1,09.5,0002.2,0015.95,0010.67,0009.98
2021-09-05 21:15:00,,0830.2,5.01,0.00,29.2,27.0,00.0,38.1,30.7,09.5,0001.6,0016.12,0010.69,0010.00
2021-09-05 21:16:00,,0830.3,5.00,0.00,29.0,25.6,00.0,38.1,30.3,09.6,0001.9,0016.04,0010.73,0010.01
2021-09-05 21:17:00,,0830.3,5.00,0.00,28.9,25.8,00.0,38.1,30.3,09.5,0002.0,0015.97,0010.72,0010.02
2021-09-05 21:18:00,,0830.2,5.00,0.00,28.9,26.2,00.0,38.0,30.5,09.8,0001.4,0016.78,0010.71,0010.01
2021-09-05 21:19:00,,0830.2,5.00,0.00,28.9,26.7,00.0,38.0,30.6,10.1,0001.4,0017.26,0010.75,0009.99
2021-09-05 21:20:00,,0830.2,5.01,0.00,29.0,27.2,00.0,38.0,30.7,10.0,0001.2,0018.28,0010.72,0009.97
2021-09-05 21:21:00,,0830.2,4.99,0.00,29.0,27.6,00.0,38.0,30.8,09.8,0001.2,0018.60,0010.69,0009.94
2021-09-05 21:22:00,,0830.2,4.99,0.00,29.1,27.9,00.0,38.0,30.9,09.7,0001.3,0018.37,0010.62,0009.90
2021-09-05 21:23:00,,0830.1,5.01,0.00,29.1,28.2,00.0,38.1,31.0,10.0,0001.2,0018.26,0010.55,0009.85
2021-09-05 21:24:00,,0830.1,5.01,0.00,29.2,28.4,00.0,38.1,31.1,10.1,0001.2,0018.47,0010.53,0009.83
2021-09-05 21:25:00,,0830.2,5.01,0.00,29.2,27.4,00.0,38.1,30.8,09.6,0000.9,0019.37,0010.47,0009.77
2021-09-05 21:26:00,,0830.1,4.99,0.00,29.1,25.8,00.0,38.1,30.4,09.7,0000.5,0019.06,0010.36,0009.69
2021-09-05 21:27:00,,0830.1,5.01,0.00,29.0,25.8,00.0,38.1,30.4,09.8,0000.6,0018.67,0010.28,0009.64
2021-09-05 21:28:00,,0830.1,4.99,0.00,28.9,26.3,00.0,38.0,30.5,09.7,0000.7,0018.80,0010.27,0009.63
2021-09-05 21:29:00,,0830.1,5.01,0.00,28.9,26.7,00.0,38.0,30.6,10.3,0001.3,0019.17,0010.30,0009.62
2021-09-05 21:30:00,,0830.1,5.01,0.00,29.0,27.2,00.0,38.0,30.8,10.1,0001.4,0019.60,0010.26,0009.59
2021-09-05 21:31:00,,0830.1,4.99,0.00,29.0,27.6,00.0,38.0,30.9,09.8,0001.9,0018.63,0010.27,0009.57
2021-09-05 21:32:00,,0830.1,5.00,0.00,29.1,27.9,00.0,38.0,31.0,09.8,0001.8,0018.75,0010.32,0009.59
2021-09-05 21:33:00,,0830.1,5.00,0.00,29.2,28.2,00.0,38.1,31.1,09.8,0001.8,0018.86,0010.40,0009.65
2021-09-05 21:34:00,,0830.1,5.00,0.00,29.2,28.4,00.0,38.1,31.2,09.9,0002.0,0019.81,0010.46,0009.70
2021-09-05 21:35:00,,0830.1,5.01,0.00,29.3,28.4,00.0,38.1,31.2,09.6,0001.9,0019.71,0010.46,0009.72
2021-09-05 21:36:00,,0830.1,5.00,0.00,29.2,26.8,00.0,38.1,30.8,09.7,0002.5,0018.70,0010.46,0009.75
2021-09-05 21:37:00,,0830.1,5.01,0.00,29.1,25.7,00.0,38.1,30.5,09.6,0003.5,0018.71,0010.52,0009.80
2021-09-05 21:38:00,,0830.1,4.99,0.00,29.0,26.1,00.0,38.1,30.5,09.8,0003.3,0018.59,0010.52,0009.81
2021-09-05 21:39:00,,0830.1,5.01,0.00,29.0,26.5,00.0,38.1,30.7,09.9,0003.3,0018.57,0010.53,0009.81
2021-09-05 21:40:00,,0830.1,4.99,0.00,29.0,27.0,00.0,38.1,30.8,09.9,0002.9,0017.55,0010.52,0009.82
2021-09-05 21:41:00,,0830.1,5.00,0.00,29.1,27.4,00.0,38.1,30.9,09.7,0002.5,0016.47,0010.48,0009.83
2021-09-05 21:42:00,,0830.2,4.99,0.00,29.1,27.8,00.0,38.1,31.0,09.9,0002.1,0016.37,0010.43,0009.82
2021-09-05 21:43:00,,0830.1,5.01,0.00,29.2,28.1,00.0,38.1,31.1,09.5,0002.2,0015.97,0010.35,0009.76
2021-09-05 21:44:00,,0830.1,5.00,0.00,29.3,28.3,00.0,38.1,31.2,09.5,0002.2,0016.53,0010.27,0009.68
2021-09-05 21:45:00,,0830.1,4.99,0.00,29.3,28.4,00.0,38.2,31.2,09.4,0002.1,0015.68,0010.18,0009.61
2021-09-05 21:46:00,,0830.1,5.01,0.00,29.3,27.1,00.0,38.2,30.8,09.4,0002.3,0014.96,0010.12,0009.57
2021-09-05 21:47:00,,0830.1,5.00,0.00,29.1,25.7,00.0,38.1,30.4,09.8,0002.3,0014.93,0010.13,0009.56
2021-09-05 21:48:00,,0830.1,4.99,0.00,29.0,25.9,00.0,38.1,30.4,09.8,0001.7,0015.05,0010.12,0009.55
2021-09-05 21:49:00,,0830.1,5.00,0.00,29.0,26.4,00.0,38.1,30.6,10.3,0001.6,0016.68,0010.13,0009.54
2021-09-05 21:50:00,,0830.1,4.99,0.00,29.0,26.8,00.0,38.1,30.7,09.8,0001.4,0016.94,0010.13,0009.53
2021-09-05 21:51:00,,0830.1,5.01,0.00,29.0,27.3,00.0,38.1,30.8,09.9,0001.7,0017.32,0010.09,0009.52
2021-09-05 21:52:00,,0830.1,5.00,0.00,29.1,27.7,00.0,38.1,31.0,09.8,0002.1,0017.54,0010.14,0009.53
2021-09-05 21:53:00,,0830.1,4.99,0.00,29.2,28.0,00.0,38.1,31.1,09.5,0002.1,0017.62,0010.18,0009.56
2021-09-05 21:54:00,,0830.1,5.02,0.00,29.2,28.3,00.0,38.1,31.2,09.7,0002.3,0017.99,0010.20,0009.58
2021-09-05 21:55:00,,0830.1,4.99,0.00,29.3,28.5,00.0,38.2,31.2,09.3,0002.7,0017.73,0010.21,0009.60
2021-09-05 21:56:00,,0830.1,5.01,0.00,29.3,27.3,00.0,38.2,31.0,09.3,0003.5,0018.18,0010.23,0009.62
2021-09-05 21:57:00,,0830.1,5.00,0.00,29.2,25.8,00.0,38.2,30.6,09.3,0003.1,0018.31,0010.26,0009.62
2021-09-05 21:58:00,,0830.1,5.00,0.00,29.1,25.9,00.0,38.2,30.5,09.3,0002.8,0018.47,0010.29,0009.63
2021-09-05 21:59:00,,0830.1,5.00,0.00,29.0,26.4,00.0,38.1,30.7,09.8,0002.9,0018.18,0010.28,0009.65
